Погода в Краснинском

Россия / Кемеровская область (Кузбасс)     54°47′37″N   85°27′15″E
темп.,
°C
ветер,
м/с
пор.,
м/с
влажн.,
%
обл.,
%
осадки,
мм/ч
давл.,
гПа
погр.,
м
25 октября, пн
пн2501:00+6юз81576100 0.3 1022444
04:00+6ююз71577100 0.0 1021462
07:00+6ююз71573100 0.0 1020501
10:00+7ююз81768100 0.0 1019607
13:00+10юз9175690 0.0 1017896
16:00+10юз91653100 0.0 1016907
19:00+8юз8165773 0.0 1017638
22:00+7юз6136193 0.0 1018441
26 октября, вт
вт2601:00+6юз4967100 0.0 1018264
04:00+5ююз3574100 0.0 101878
07:00+5ю3873100 0.0 1017152
10:00+6ю51164100 0.0 1014337
13:00+8ю61355100 0.0 1011494
16:00+10ююз71552100 0.0 1007911
19:00+10юз81645100 0.0 1006629
22:00+9зюз71448100 0.0 1007475
27 октября, ср
ср2701:00+4з81393100 0.1 1012993
04:00+3з81360100 0.2 10171486
07:000з6106847 0.2 1022819
10:000з57614 0.0 1025674
13:00+2зюз464255 0.0 10251096
16:00+2зюз573980 0.0 10241309
19:00−1юз345432 0.0 102686
22:00−1юз495883 0.0 1026269
28 октября, чт
чт2801:00−1юз395860 0.0 1027272
04:00−2юз485888 0.0 1027240
07:00−2юз4858100 0.0 1028217
10:00−1юз4752100 0.0 1029321
13:00+2юз4542100 0.0 1028695
16:00+2ююз35416 0.0 1027835
19:00−1ю375567 0.0 1027112
22:00−2ю395653 0.0 1027196
29 октября, пт
пт2901:000ю41149100 0.0 1025328
04:00−1ю51164100 0.0 1023338
07:00+1ю61579100 0.0 1021473
10:00+3ююз71681100 0.0 1020724
13:00+5ююз81668100 0.0 10181002
16:00+6юз81552100 0.0 10181043
19:00+4юз7145095 0.0 1020504
22:00+4юз71646100 0.0 1020677